Radiation Dose at Monitoring Post of Fukushima Daini Nuclear Power Station
Date,Time,MP-1(microSv/h),MP-2(microSv/h),MP-3(microSv/h),MP-4(microSv/h),MP-5(microSv/h),MP-6(microSv/h),MP-7(microSv/h),Wind Direction,Wind Velocity(m/s),Rain
2020/04/14,00:00,0.171,0.158,0.254,0.233,0.251,0.133,0.085,north-northwest,15.0,No
2020/04/14,00:10,0.171,0.157,0.255,0.233,0.250,0.132,0.084,north-northwest,14.0,No
2020/04/14,00:20,0.171,0.156,0.254,0.234,0.251,0.132,0.084,north-northwest,14.6,No
2020/04/14,00:30,0.170,0.155,0.254,0.235,0.250,0.132,0.083,north-northwest,15.1,No
2020/04/14,00:40,0.171,0.156,0.254,0.234,0.250,0.131,0.083,north-northwest,14.8,No
2020/04/14,00:50,0.171,0.156,0.254,0.234,0.250,0.130,0.083,northwest,12.3,No
2020/04/14,01:00,0.171,0.156,0.254,0.234,0.250,0.131,0.083,northwest,12.6,Yes
2020/04/14,01:10,0.171,0.156,0.255,0.234,0.250,0.131,0.083,northwest,14.8,Yes
2020/04/14,01:20,0.171,0.156,0.255,0.235,0.250,0.131,0.082,north-northwest,11.1,Yes
2020/04/14,01:30,0.171,0.157,0.256,0.235,0.250,0.131,0.082,northwest,12.3,Yes
2020/04/14,01:40,0.173,0.157,0.257,0.235,0.251,0.132,0.083,north-northwest,13.4,Yes
2020/04/14,01:50,0.174,0.157,0.256,0.234,0.252,0.132,0.083,north-northwest,15.4,Yes
2020/04/14,02:00,0.172,0.157,0.256,0.234,0.252,0.132,0.084,north-northwest,13.1,No
2020/04/14,02:10,0.172,0.157,0.256,0.234,0.250,0.132,0.083,north-northwest,13.7,No
2020/04/14,02:20,0.173,0.156,0.256,0.235,0.251,0.132,0.083,north-northwest,13.7,No
2020/04/14,02:30,0.173,0.158,0.255,0.233,0.250,0.132,0.083,northwest,13.4,No
2020/04/14,02:40,0.173,0.157,0.256,0.234,0.250,0.132,0.083,north-northwest,14.0,No
2020/04/14,02:50,0.173,0.156,0.256,0.233,0.250,0.132,0.083,northwest,12.5,No
2020/04/14,03:00,0.172,0.156,0.256,0.234,0.249,0.132,0.082,northwest,13.7,No
2020/04/14,03:10,0.173,0.156,0.256,0.235,0.251,0.131,0.082,northwest,12.6,No
2020/04/14,03:20,0.173,0.156,0.256,0.235,0.251,0.131,0.082,north-northwest,12.9,No
2020/04/14,03:30,0.172,0.156,0.256,0.234,0.251,0.131,0.082,north-northwest,14.2,No
2020/04/14,03:40,0.173,0.155,0.256,0.235,0.250,0.131,0.082,north-northwest,13.7,No
2020/04/14,03:50,0.173,0.156,0.256,0.235,0.250,0.132,0.082,north-northwest,16.1,No
2020/04/14,04:00,0.173,0.156,0.256,0.235,0.251,0.132,0.083,northwest,12.3,No
2020/04/14,04:10,0.172,0.156,0.257,0.236,0.252,0.131,0.082,north-northwest,12.0,No
2020/04/14,04:20,0.173,0.157,0.256,0.235,0.250,0.132,0.082,northwest,9.2,No
2020/04/14,04:30,0.174,0.156,0.256,0.234,0.250,0.131,0.082,north-northwest,12.8,No
2020/04/14,04:40,0.173,0.155,0.257,0.235,0.251,0.132,0.082,north-northwest,12.8,No
2020/04/14,04:50,0.173,0.156,0.258,0.234,0.251,0.132,0.082,north-northwest,12.6,No
2020/04/14,05:00,0.174,0.156,0.258,0.235,0.252,0.133,0.082,north-northwest,10.1,No
2020/04/14,05:10,0.173,0.157,0.258,0.235,0.252,0.133,0.081,north-northwest,9.5,No
2020/04/14,05:20,0.173,0.155,0.259,0.235,0.250,0.133,0.082,north-northwest,8.7,No
2020/04/14,05:30,0.173,0.155,0.258,0.235,0.250,0.131,0.081,north-northwest,9.8,No
2020/04/14,05:40,0.173,0.156,0.256,0.236,0.252,0.132,0.081,north-northwest,9.5,No
2020/04/14,05:50,0.174,0.156,0.257,0.235,0.251,0.132,0.082,north-northwest,10.1,No
2020/04/14,06:00,0.174,0.156,0.257,0.235,0.250,0.132,0.082,north-northwest,9.0,No
2020/04/14,06:10,0.174,0.156,0.257,0.236,0.251,0.132,0.081,north-northwest,8.4,No
2020/04/14,06:20,0.175,0.156,0.257,0.235,0.251,0.132,0.082,north-northwest,8.1,No
2020/04/14,06:30,0.174,0.157,0.258,0.235,0.252,0.133,0.082,northwest,7.3,No
2020/04/14,06:40,0.174,0.156,0.257,0.235,0.251,0.134,0.082,north-northwest,6.6,No
2020/04/14,06:50,0.174,0.156,0.258,0.235,0.251,0.132,0.082,north-northwest,7.0,No
2020/04/14,07:00,0.173,0.157,0.258,0.235,0.250,0.133,0.082,north-northwest,6.8,No
2020/04/14,07:10,0.174,0.156,0.257,0.236,0.251,0.133,0.082,north-northwest,7.3,No
2020/04/14,07:20,0.173,0.157,0.257,0.236,0.251,0.133,0.082,north-northwest,6.8,No
2020/04/14,07:30,0.173,0.157,0.257,0.235,0.251,0.132,0.082,north-northwest,6.1,No
2020/04/14,07:40,0.173,0.156,0.258,0.236,0.250,0.133,0.082,north-northwest,6.6,No
2020/04/14,07:50,0.174,0.156,0.256,0.237,0.252,0.133,0.081,northwest,5.6,No
2020/04/14,08:00,0.174,0.155,0.257,0.235,0.251,0.134,0.082,north-northwest,5.5,No
2020/04/14,08:10,0.173,0.155,0.257,0.235,0.251,0.133,0.081,northwest,6.3,No
2020/04/14,08:20,0.173,0.156,0.255,0.235,0.253,0.133,0.081,north-northwest,7.3,No
2020/04/14,08:30,0.173,0.155,0.257,0.235,0.251,0.134,0.081,northwest,10.6,No
2020/04/14,08:40,0.174,0.157,0.257,0.236,0.251,0.133,0.082,north-northwest,8.8,No
2020/04/14,08:50,0.174,0.156,0.256,0.236,0.253,0.133,0.082,north-northwest,9.2,No
2020/04/14,09:00,0.173,0.156,0.258,0.235,0.251,0.133,0.082,northwest,9.0,No
2020/04/14,09:10,0.174,0.157,0.259,0.237,0.254,0.132,0.081,northwest,7.3,No
2020/04/14,09:20,0.174,0.156,0.257,0.236,0.250,0.132,0.081,northwest,8.3,No
2020/04/14,09:30,0.173,0.156,0.259,0.235,0.252,0.133,0.081,northwest,9.6,No
2020/04/14,09:40,0.173,0.157,0.257,0.235,0.251,0.133,0.082,northwest,10.7,No
2020/04/14,09:50,0.173,0.156,0.257,0.236,0.253,0.132,0.082,north-northwest,10.3,No
2020/04/14,10:00,0.174,0.157,0.260,0.235,0.253,0.134,0.082,northwest,10.1,No
2020/04/14,10:10,0.175,0.157,0.259,0.235,0.252,0.133,0.082,northwest,9.8,No
2020/04/14,10:20,0.173,0.156,0.258,0.237,0.254,0.134,0.082,northwest,12.8,No
2020/04/14,10:30,0.174,0.156,0.259,0.236,0.250,0.133,0.081,northwest,12.3,No
2020/04/14,10:40,0.174,0.157,0.260,0.238,0.254,0.133,0.082,northwest,10.6,No
2020/04/14,10:50,0.173,0.155,0.258,0.235,0.251,0.134,0.082,northwest,9.8,No
2020/04/14,11:00,0.174,0.158,0.258,0.237,0.252,0.134,0.082,northwest,12.2,No
2020/04/14,11:10,0.173,0.157,0.259,0.236,0.251,0.133,0.082,north-northwest,12.0,No
2020/04/14,11:20,0.175,0.158,0.260,0.238,0.253,0.134,0.082,northwest,12.0,No
2020/04/14,11:30,0.175,0.156,0.261,0.236,0.253,0.134,0.082,north-northwest,11.4,No
2020/04/14,11:40,0.174,0.157,0.260,0.237,0.253,0.134,0.082,northwest,12.0,No
2020/04/14,11:50,0.175,0.156,0.261,0.237,0.251,0.133,0.083,northwest,12.0,No
2020/04/14,12:00,0.174,0.158,0.261,0.238,0.253,0.134,0.083,northwest,10.7,No
2020/04/14,12:10,0.175,0.157,0.260,0.237,0.252,0.134,0.082,northwest,8.4,No
2020/04/14,12:20,0.174,0.157,0.262,0.239,0.255,0.133,0.082,northwest,12.6,No
2020/04/14,12:30,0.176,0.157,0.260,0.238,0.251,0.135,0.081,northwest,10.1,No
2020/04/14,12:40,0.175,0.158,0.261,0.238,0.253,0.133,0.082,northwest,8.6,No
2020/04/14,12:50,0.175,0.157,0.263,0.238,0.252,0.135,0.082,northwest,11.2,No
2020/04/14,13:00,0.174,0.156,0.261,0.239,0.253,0.134,0.083,northwest,11.5,No
2020/04/14,13:10,0.175,0.157,0.262,0.238,0.254,0.134,0.082,northwest,13.1,No
2020/04/14,13:20,0.175,0.157,0.262,0.237,0.252,0.134,0.082,northwest,11.5,No
2020/04/14,13:30,0.174,0.157,0.261,0.240,0.254,0.135,0.082,north-northwest,13.9,No
2020/04/14,13:40,0.175,0.158,0.261,0.238,0.253,0.134,0.083,northwest,12.2,No
2020/04/14,13:50,0.175,0.158,0.261,0.239,0.254,0.134,0.082,northwest,13.3,No
2020/04/14,14:00,0.176,0.157,0.261,0.241,0.253,0.136,0.082,northwest,13.6,No
2020/04/14,14:10,0.175,0.157,0.262,0.238,0.254,0.135,0.082,northwest,10.9,No
2020/04/14,14:20,0.176,0.159,0.263,0.240,0.252,0.136,0.082,northwest,11.2,No
2020/04/14,14:30,0.176,0.158,0.263,0.239,0.256,0.135,0.082,northwest,12.9,No
2020/04/14,14:40,0.175,0.158,0.261,0.240,0.252,0.135,0.082,northwest,13.6,No
2020/04/14,14:50,0.176,0.157,0.262,0.239,0.254,0.135,0.082,northwest,15.0,No
2020/04/14,15:00,0.176,0.158,0.262,0.240,0.253,0.134,0.082,northwest,14.9,No
2020/04/14,15:10,0.176,0.158,0.263,0.240,0.254,0.136,0.083,northwest,12.8,No
2020/04/14,15:20,0.176,0.158,0.264,0.239,0.254,0.135,0.084,northwest,12.8,No
2020/04/14,15:30,0.177,0.159,0.263,0.241,0.255,0.135,0.083,northwest,14.4,No
2020/04/14,15:40,0.175,0.158,0.264,0.240,0.254,0.135,0.083,northwest,11.2,No
2020/04/14,15:50,0.176,0.158,0.266,0.241,0.256,0.135,0.082,northwest,11.8,No
2020/04/14,16:00,0.176,0.158,0.266,0.241,0.254,0.135,0.083,northwest,11.4,No
2020/04/14,16:10,0.176,0.159,0.265,0.241,0.255,0.135,0.083,northwest,11.5,No
2020/04/14,16:20,0.177,0.158,0.265,0.242,0.255,0.135,0.083,northwest,11.2,No
2020/04/14,16:30,0.177,0.159,0.266,0.242,0.255,0.135,0.083,northwest,8.7,No
2020/04/14,16:40,0.177,0.158,0.265,0.240,0.253,0.136,0.083,northwest,7.6,No
2020/04/14,16:50,0.177,0.158,0.265,0.241,0.255,0.136,0.083,north-northwest,8.7,No
2020/04/14,17:00,0.176,0.159,0.265,0.241,0.254,0.135,0.083,north-northwest,6.9,No
2020/04/14,17:10,0.176,0.159,0.265,0.241,0.255,0.136,0.083,north-northwest,4.6,No
2020/04/14,17:20,0.177,0.160,0.265,0.242,0.254,0.135,0.083,north-northwest,5.1,No
2020/04/14,17:30,0.177,0.160,0.266,0.241,0.256,0.136,0.082,north-northwest,5.6,No
2020/04/14,17:40,0.177,0.159,0.266,0.241,0.254,0.135,0.082,north-northwest,4.2,No
2020/04/14,17:50,0.176,0.158,0.264,0.241,0.255,0.136,0.083,north-northwest,6.3,No
2020/04/14,18:00,0.177,0.159,0.266,0.240,0.256,0.136,0.083,north-northwest,6.4,No
2020/04/14,18:10,0.176,0.160,0.265,0.241,0.255,0.137,0.082,north-northwest,4.6,No
2020/04/14,18:20,0.177,0.159,0.264,0.241,0.255,0.137,0.083,northwest,3.7,No
2020/04/14,18:30,0.177,0.159,0.265,0.241,0.256,0.137,0.082,north-northwest,3.8,No
2020/04/14,18:40,0.177,0.159,0.265,0.239,0.254,0.136,0.083,northwest,4.9,No
2020/04/14,18:50,0.176,0.159,0.264,0.241,0.255,0.136,0.082,west-northwest,4.4,No
2020/04/14,19:00,0.177,0.159,0.265,0.242,0.256,0.136,0.083,northwest,8.3,No
2020/04/14,19:10,0.176,0.159,0.266,0.240,0.254,0.136,0.083,northwest,6.3,No
2020/04/14,19:20,0.176,0.159,0.264,0.241,0.255,0.136,0.082,northwest,5.8,No
2020/04/14,19:30,0.177,0.159,0.265,0.241,0.255,0.136,0.082,northwest,5.8,No
2020/04/14,19:40,0.177,0.159,0.266,0.241,0.254,0.137,0.082,west-northwest,8.3,No
2020/04/14,19:50,0.177,0.160,0.265,0.242,0.254,0.135,0.083,west-northwest,7.0,No
2020/04/14,20:00,0.176,0.159,0.264,0.240,0.253,0.135,0.083,west-northwest,7.6,No
2020/04/14,20:10,0.176,0.159,0.265,0.240,0.254,0.136,0.082,northwest,9.3,No
2020/04/14,20:20,0.176,0.158,0.265,0.242,0.254,0.136,0.083,west-northwest,8.7,No
2020/04/14,20:30,0.177,0.159,0.264,0.241,0.254,0.137,0.083,west-northwest,6.1,No
2020/04/14,20:40,0.177,0.158,0.265,0.243,0.254,0.137,0.082,west-northwest,4.5,No
2020/04/14,20:50,0.176,0.160,0.265,0.241,0.254,0.137,0.082,west-northwest,2.4,No
2020/04/14,21:00,0.176,0.158,0.266,0.242,0.255,0.136,0.083,west-southwest,2.0,No
2020/04/14,21:10,0.177,0.159,0.265,0.241,0.253,0.136,0.083,west,3.2,No
2020/04/14,21:20,0.177,0.159,0.264,0.242,0.254,0.137,0.083,west,5.6,No
2020/04/14,21:30,0.177,0.158,0.264,0.242,0.255,0.135,0.083,west,4.8,No
2020/04/14,21:40,0.177,0.159,0.266,0.241,0.256,0.136,0.083,west,1.3,No
2020/04/14,21:50,0.177,0.159,0.265,0.242,0.255,0.136,0.083,northeast,0.6,No
2020/04/14,22:00,0.176,0.159,0.265,0.241,0.254,0.136,0.083,-,CALM,No
2020/04/14,22:10,0.177,0.159,0.266,0.243,0.253,0.137,0.083,north-northwest,1.6,No
2020/04/14,22:20,0.177,0.158,0.266,0.240,0.254,0.136,0.082,north-northwest,3.1,No
2020/04/14,22:30,0.177,0.159,0.266,0.242,0.254,0.136,0.082,northwest,2.9,No
2020/04/14,22:40,0.176,0.160,0.265,0.242,0.255,0.136,0.083,northwest,5.1,No
2020/04/14,22:50,0.177,0.159,0.264,0.242,0.255,0.136,0.083,northwest,5.5,No
2020/04/14,23:00,0.177,0.158,0.265,0.242,0.255,0.136,0.083,northwest,5.9,No
2020/04/14,23:10,0.177,0.159,0.265,0.241,0.255,0.135,0.083,northwest,5.7,No
2020/04/14,23:20,0.177,0.160,0.264,0.241,0.255,0.136,0.082,west-northwest,5.4,No
2020/04/14,23:30,0.177,0.159,0.263,0.241,0.256,0.137,0.083,west-northwest,4.5,No
2020/04/14,23:40,0.177,0.159,0.265,0.242,0.253,0.137,0.082,northwest,3.3,No
2020/04/14,23:50,0.177,0.159,0.266,0.242,0.254,0.136,0.083,west-northwest,2.4,No
